Wind_Speed
17 16 16 15 15 14 13 12 11 11 11 11 10 10 10 10 10 9 9 9 9 9 9 9 8 8 8 7 7 7 7 7 8 8 8 9 9 9 10 10 11 11 11
18 18 18 17 17 16 16 15 14 13 13 13 12 12 12 12 12 12 11 10 10 10 10 10 10 10 10 9 9 9 8 9 9 9 9 10 10 10 11 12 12 12 12
20 20 19 18 18 17 17 17 16 15 15 15 15 15 15 14 14 14 13 12 12 12 12 12 11 11 11 11 11 11 10 10 10 10 10 10 11 11 11 12 12 13 13
21 21 21 20 20 19 19 18 18 17 17 17 17 17 17 17 16 16 16 15 15 14 14 14 13 13 13 13 13 13 12 12 12 12 12 12 12 12 13 13 13 13 13
22 22 22 22 21 21 20 20 19 19 19 19 19 19 20 19 19 19 18 18 17 17 16 16 15 15 15 14 14 14 14 14 14 14 14 14 14 14 14 14 14 14 14
24 23 23 23 23 22 22 21 21 20 20 20 20 21 21 22 21 21 20 20 20 19 19 18 18 17 17 17 16 16 16 15 15 15 16 15 15 15 15 15 15 16 16
25 25 25 24 24 24 24 23 22 22 22 22 22 22 22 22 22 22 21 21 21 21 21 21 20 19 19 19 19 19 18 18 17 17 17 17 17 17 17 17 17 17 17
27 26 25 26 26 26 26 25 24 23 23 23 23 23 23 22 23 23 23 23 23 22 22 22 22 22 21 21 21 21 20 21 20 20 20 19 19 19 18 18 19 19 20
28 28 28 28 28 28 28 27 26 25 25 24 24 24 24 24 24 24 24 25 25 24 24 23 23 23 22 23 23 23 23 23 22 22 22 22 21 21 21 21 21 21 21
31 30 30 30 30 30 30 30 29 28 27 26 26 25 25 25 26 26 26 27 27 26 26 26 25 25 24 24 24 24 24 24 24 24 24 23 23 23 23 22 23 23 23
33 33 32 33 32 33 33 32 31 31 30 29 28 28 28 28 28 28 27 28 28 28 27 27 27 27 27 26 27 26 26 26 26 26 26 26 26 25 25 25 25 25 25
35 35 36 36 35 34 34 33 33 33 32 31 30 30 30 29 29 29 29 28 29 29 29 28 28 28 28 28 28 28 28 28 28 28 27 27 27 27 27 27 27 27 27
37 37 38 38 37 36 35 34 35 34 34 34 33 32 30 30 31 30 30 30 30 30 30 30 29 29 29 29 29 30 30 30 30 29 29 29 29 29 29 29 29 29 29
40 39 39 40 39 38 37 36 35 36 36 35 35 33 32 31 31 32 32 31 31 31 31 31 31 30 30 30 30 31 31 31 31 31 31 31 31 31 31 31 30 31 31
42 41 41 42 41 40 39 38 37 37 37 36 36 35 34 33 32 33 33 32 32 32 32 32 32 32 31 31 31 32 32 32 32 33 33 33 33 33 33 33 33 33 33
44 43 42 42 42 42 41 40 39 39 38 37 37 36 36 34 33 33 34 34 34 34 34 33 33 33 32 32 32 32 32 33 34 34 34 34 35 35 35 35 35 35 35
45 44 44 43 44 44 43 42 41 41 41 39 37 37 37 37 36 34 35 36 36 36 35 35 35 34 34 34 33 34 34 34 34 35 36 36 36 36 36 36 36 36 36
44 44 44 45 45 45 45 44 43 43 43 42 40 38 39 38 38 37 36 37 38 38 38 37 37 36 36 36 35 35 36 36 35 36 36 36 36 36 36 36 36 36 37
44 44 44 44 46 46 45 45 45 44 43 43 42 41 40 40 39 40 39 39 39 40 39 38 38 37 37 37 36 37 37 36 37 37 37 37 37 37 37 37 37 37 38
43 44 45 44 45 46 46 46 46 45 45 44 43 44 43 41 42 42 42 42 41 41 40 40 40 39 38 38 38 39 38 38 38 38 37 37 38 38 39 38 39 39 40
43 43 44 43 44 46 46 45 46 46 47 46 45 44 44 44 43 43 42 43 43 41 41 40 40 39 40 39 39 40 39 39 38 38 38 38 38 39 40 40 39 40 41
43 43 43 44 43 44 45 45 46 47 47 47 46 45 45 45 44 44 43 42 41 40 41 41 41 41 42 41 40 40 39 38 38 38 38 38 39 40 40 40 40 41 41
43 44 43 42 43 44 45 46 45 45 47 46 47 46 45 45 44 44 44 43 43 42 41 41 41 41 41 41 40 41 40 38 38 38 39 39 39 40 40 40 41 42 42
42 43 44 43 44 45 45 46 46 46 46 46 46 47 46 45 45 45 45 45 44 43 42 42 41 41 41 41 41 41 41 40 40 39 39 40 40 39 40 40 41 42 42
42 42 43 43 42 43 44 45 46 45 45 46 46 46 47 47 46 46 46 46 45 44 44 44 42 42 42 41 40 39 40 41 41 41 40 39 40 39 39 40 41 42 43
41 42 43 43 42 40 41 43 43 43 44 44 45 46 46 46 46 48 48 47 46 44 44 44 43 42 41 41 39 39 41 41 41 41 40 40 40 39 39 40 41 43 44
Wind_Direction
250 251 252 253 253 253 254 256 256 256 258 260 261 260 260 263 264 263 264 267 270 272 273 274 279 280 281 286 290 295 300 302 308 310 313 316 317 317 319 320 319 318 317
249 251 252 252 253 254 254 255 257 256 258 261 261 260 259 260 262 261 262 265 268 270 272 273 275 276 278 280 282 286 291 294 300 304 307 311 314 315 317 319 318 316 315
249 251 252 252 253 253 253 254 256 257 258 260 261 260 258 258 259 260 260 262 265 267 268 268 271 273 275 276 277 280 284 289 294 297 301 305 308 310 313 315 315 315 313
250 251 252 253 253 253 253 254 256 258 260 260 261 260 258 257 257 257 258 260 263 265 266 267 268 270 270 270 273 276 279 285 289 293 296 301 303 305 307 309 311 312 312
251 251 252 253 253 253 253 255 257 259 260 260 261 261 260 258 257 255 256 258 261 264 265 266 267 268 269 268 270 274 276 282 285 289 293 296 298 299 300 303 307 309 309
252 251 252 254 254 254 254 255 257 259 260 261 262 262 261 259 257 256 257 258 260 262 265 266 266 268 268 268 270 273 274 277 282 285 288 291 293 294 295 297 302 305 306
251 251 251 254 256 256 256 256 257 258 260 261 263 261 260 259 257 256 256 258 259 260 263 265 267 267 267 269 271 272 273 275 279 282 284 286 289 291 291 293 296 300 303
249 250 251 254 256 257 258 258 258 259 260 262 261 260 258 258 258 257 256 257 259 261 263 264 266 267 269 270 270 272 272 275 278 281 282 284 286 288 290 291 293 297 299
251 251 251 253 256 259 258 258 258 259 262 260 259 260 259 258 258 258 257 258 259 261 263 265 265 266 268 270 271 272 274 276 278 280 282 282 283 285 288 290 291 295 297
251 251 252 255 255 258 258 258 258 259 261 259 258 259 260 260 259 258 258 258 259 261 263 264 265 266 268 270 271 272 274 276 278 279 281 282 283 285 286 288 290 292 294
253 253 254 255 256 257 257 257 258 259 259 259 258 259 259 261 261 260 259 259 260 262 264 264 265 266 267 269 270 271 274 276 278 279 280 281 283 284 286 287 288 290 292
254 254 255 255 255 256 256 256 257 259 259 259 259 259 261 262 262 260 259 259 259 261 263 265 266 266 267 269 270 271 272 275 277 279 280 279 281 283 284 287 287 289 290
255 256 255 254 255 255 255 256 257 258 258 258 259 260 261 261 260 259 259 259 260 262 264 265 266 267 266 268 269 271 272 274 276 278 279 279 279 281 283 285 286 288 289
256 255 254 254 254 254 254 256 258 257 257 258 259 258 258 260 260 259 259 260 261 262 264 265 267 267 268 270 270 271 272 273 274 277 278 279 279 280 281 284 286 288 288
255 254 254 253 253 254 255 255 257 258 256 256 257 256 257 259 259 259 259 260 261 263 264 265 266 267 269 270 271 272 272 273 273 275 277 278 279 280 281 283 284 286 288
254 253 253 253 253 253 254 255 256 256 255 255 255 256 257 257 258 258 258 259 260 261 263 265 266 267 269 270 272 272 274 274 274 275 276 277 278 279 280 282 283 285 287
252 252 252 252 252 253 253 255 255 255 253 252 254 255 256 256 256 258 258 259 260 261 262 264 266 266 269 270 272 273 275 276 276 276 276 277 278 279 279 280 282 283 285
252 252 252 251 251 252 253 253 253 253 251 251 253 253 255 255 255 256 259 259 261 262 263 264 265 266 269 270 272 274 275 276 276 277 277 277 278 278 279 279 281 282 284
251 252 253 253 251 251 252 252 252 252 251 251 251 251 253 254 256 256 257 260 261 262 263 264 265 266 268 270 273 274 275 276 276 277 278 277 278 278 278 278 279 281 282
253 253 253 254 252 251 251 252 252 251 250 250 250 250 253 256 257 256 257 258 260 262 263 264 265 266 268 271 273 274 276 276 277 278 278 278 278 278 277 278 279 281 281
255 255 254 255 255 253 252 251 251 250 250 249 249 251 253 255 256 257 257 258 260 262 263 264 266 267 268 272 273 274 275 277 278 278 278 278 279 278 278 278 280 281 281
256 256 255 254 255 256 254 251 251 251 251 250 250 251 252 256 257 257 257 257 258 261 263 264 265 267 269 271 272 273 275 276 277 278 278 279 280 279 279 280 280 280 281
257 257 256 255 256 257 255 252 252 252 252 251 249 250 252 254 255 255 256 256 256 259 261 263 266 267 268 270 272 273 274 275 277 278 279 280 280 281 280 280 280 281 282
257 258 256 256 257 257 256 253 252 251 251 250 249 249 251 253 254 255 255 256 257 257 260 262 265 266 268 271 272 272 273 275 276 276 278 280 281 281 281 281 281 280 281
256 256 256 257 258 257 256 253 252 251 252 250 249 250 250 252 255 255 255 257 255 256 259 262 264 266 268 271 271 271 272 275 276 277 279 280 280 280 280 281 282 281 281
256 256 255 257 258 258 255 252 251 251 251 249 248 249 250 252 254 254 255 257 255 255 257 260 261 265 267 268 269 270 272 275 276 278 280 280 279 278 279 282 283 283 282
Height
5845 5846 5847 5848 5849 5850 5851 5852 5852 5853 5854 5854 5854 5855 5856 5857 5857 5858 5858 5859 5859 5860 5860 5860 5860 5861 5861 5861 5861 5861 5861 5861 5860 5860 5859 5859 5858 5858 5857 5856 5856 5855 5854
5842 5843 5844 5845 5846 5847 5848 5849 5850 5850 5851 5852 5852 5852 5853 5854 5855 5855 5856 5857 5857 5858 5858 5859 5859 5859 5859 5859 5859 5859 5859 5859 5859 5858 5858 5857 5857 5856 5855 5855 5854 5853 5852
5838 5840 5841 5841 5843 5844 5845 5846 5846 5847 5848 5848 5849 5850 5850 5851 5852 5853 5853 5854 5855 5855 5856 5856 5856 5857 5857 5857 5857 5857 5857 5857 5857 5856 5856 5855 5855 5854 5853 5853 5852 5851 5850
5834 5835 5837 5838 5839 5840 5841 5842 5843 5844 5844 5845 5845 5846 5847 5847 5848 5849 5850 5851 5852 5853 5853 5854 5853 5854 5854 5854 5854 5854 5854 5854 5854 5854 5854 5853 5853 5852 5851 5850 5850 5849 5848
5830 5831 5832 5834 5835 5836 5837 5838 5839 5840 5840 5841 5841 5842 5843 5843 5844 5845 5846 5847 5848 5849 5850 5850 5851 5851 5851 5851 5851 5851 5851 5852 5852 5852 5851 5851 5850 5849 5849 5848 5847 5846 5845
5824 5826 5828 5829 5830 5831 5832 5833 5834 5835 5836 5836 5837 5837 5838 5838 5839 5841 5842 5843 5844 5845 5846 5846 5847 5847 5848 5848 5848 5848 5848 5848 5848 5848 5848 5848 5847 5846 5846 5845 5844 5843 5842
5819 5821 5823 5824 5825 5826 5827 5829 5829 5830 5830 5831 5831 5831 5832 5832 5834 5835 5837 5838 5839 5840 5841 5842 5843 5843 5843 5844 5844 5844 5844 5845 5844 5845 5845 5844 5844 5843 5842 5841 5841 5840 5839
5814 5816 5818 5819 5820 5821 5822 5823 5824 5824 5825 5825 5825 5825 5826 5827 5828 5830 5831 5833 5834 5835 5836 5837 5838 5838 5838 5839 5840 5840 5840 5840 5841 5841 5841 5840 5840 5839 5838 5837 5837 5836 5835
5808 5810 5811 5813 5814 5815 5816 5817 5818 5818 5819 5819 5819 5820 5820 5821 5822 5824 5825 5827 5828 5829 5831 5832 5833 5833 5833 5834 5835 5835 5835 5836 5836 5836 5836 5836 5835 5835 5834 5833 5833 5832 5831
5802 5803 5805 5807 5808 5809 5810 5811 5812 5812 5812 5813 5813 5814 5814 5815 5816 5817 5819 5821 5822 5823 5824 5825 5826 5827 5827 5828 5829 5829 5830 5830 5830 5831 5831 5831 5830 5829 5829 5829 5828 5827 5826
5795 5796 5797 5799 5801 5802 5803 5804 5805 5805 5806 5806 5807 5807 5808 5809 5810 5811 5812 5813 5815 5816 5817 5818 5820 5820 5821 5822 5823 5823 5824 5824 5824 5825 5825 5825 5825 5824 5824 5823 5823 5822 5821
5787 5788 5790 5791 5793 5794 5795 5796 5797 5798 5798 5799 5800 5800 5801 5802 5803 5804 5805 5806 5808 5809 5811 5811 5812 5813 5814 5815 5815 5816 5817 5818 5818 5819 5819 5819 5818 5818 5818 5817 5817 5816 5815
5778 5780 5780 5782 5784 5785 5786 5787 5789 5790 5791 5792 5792 5793 5793 5794 5795 5796 5798 5799 5801 5802 5804 5804 5805 5806 5807 5808 5808 5809 5810 5811 5811 5812 5812 5812 5812 5811 5811 5811 5810 5810 5808
5769 5770 5771 5773 5774 5776 5777 5779 5780 5781 5782 5783 5784 5785 5785 5786 5787 5789 5790 5792 5794 5795 5796 5797 5798 5799 5800 5801 5801 5801 5802 5803 5804 5804 5805 5805 5805 5804 5804 5804 5803 5803 5802
5759 5760 5761 5763 5765 5766 5768 5770 5772 5773 5774 5775 5776 5777 5778 5778 5780 5781 5783 5785 5786 5787 5789 5790 5790 5792 5792 5793 5793 5794 5794 5795 5796 5796 5797 5797 5797 5797 5796 5796 5796 5795 5794
5747 5749 5750 5752 5754 5756 5758 5760 5762 5763 5765 5766 5767 5769 5770 5770 5772 5773 5775 5777 5778 5780 5781 5782 5783 5784 5785 5785 5786 5786 5787 5787 5788 5788 5788 5789 5789 5789 5789 5788 5788 5787 5786
5735 5737 5739 5742 5743 5745 5747 5750 5751 5753 5755 5757 5758 5760 5761 5763 5764 5765 5767 5769 5771 5772 5773 5774 5775 5776 5777 5778 5778 5779 5779 5780 5780 5780 5780 5780 5780 5780 5780 5780 5779 5778 5777
5723 5726 5728 5730 5732 5734 5736 5739 5741 5742 5745 5747 5749 5751 5752 5754 5756 5758 5759 5761 5763 5764 5765 5766 5767 5769 5770 5770 5771 5771 5771 5772 5772 5771 5771 5772 5772 5772 5771 5771 5771 5770 5769
5712 5714 5717 5719 5721 5723 5725 5728 5730 5732 5734 5737 5739 5742 5743 5746 5747 5749 5751 5752 5754 5755 5757 5758 5759 5761 5761 5762 5763 5763 5763 5763 5763 5763 5763 5763 5763 5763 5762 5762 5762 5761 5760
5701 5703 5706 5708 5710 5712 5715 5717 5720 5722 5724 5727 5730 5732 5734 5736 5738 5740 5742 5743 5744 5746 5747 5749 5750 5752 5753 5754 5754 5754 5755 5755 5755 5754 5754 5754 5754 5753 5753 5753 5752 5752 5750
5690 5693 5695 5697 5700 5702 5704 5706 5709 5711 5714 5717 5720 5722 5724 5726 5728 5730 5732 5734 5735 5736 5738 5740 5741 5742 5743 5744 5745 5745 5745 5745 5746 5745 5745 5745 5745 5744 5744 5743 5743 5742 5741
5680 5682 5685 5687 5689 5690 5693 5695 5697 5700 5703 5706 5709 5711 5714 5716 5718 5721 5722 5724 5726 5727 5728 5730 5731 5733 5734 5734 5735 5736 5736 5737 5736 5736 5736 5736 5735 5735 5734 5734 5733 5733 5732
5670 5672 5675 5676 5678 5679 5681 5684 5686 5688 5691 5694 5698 5701 5703 5705 5708 5710 5713 5714 5716 5718 5719 5721 5722 5723 5724 5725 5725 5726 5727 5728 5728 5728 5727 5726 5726 5725 5725 5724 5723 5723 5722
5661 5662 5664 5666 5668 5668 5670 5672 5675 5677 5680 5684 5687 5690 5693 5695 5697 5700 5703 5705 5707 5708 5710 5711 5713 5714 5715 5715 5715 5716 5717 5718 5718 5719 5719 5717 5716 5716 5715 5714 5713 5712 5711
5650 5652 5654 5656 5657 5658 5659 5661 5663 5665 5669 5672 5676 5679 5682 5685 5687 5690 5693 5695 5697 5699 5700 5702 5704 5705 5705 5706 5706 5707 5707 5707 5708 5708 5709 5708 5707 5706 5705 5704 5703 5702 5700
5640 5642 5644 5645 5647 5648 5650 5651 5652 5655 5658 5662 5665 5669 5672 5675 5677 5680 5683 5685 5686 5689 5691 5693 5694 5695 5695 5696 5697 5697 5698 5698 5698 5698 5698 5698 5698 5697 5695 5694 5693 5691 5690